Regional Weather Roundup
Issued by NWS Northern Indiana

Home | Current Version | Previous Version | Text Only | Print | Product List | Glossary Off
Versions: 1 2 3 4 5 6 7 8 9 10 11 12 13 14 15 16 17 18 19 20 21 22 23 24 25 26 27 28 29 30 31 32 33 34 35 36 37 38 39 40 41 42 43 44 45 46 47 48 49 50

000
ASUS43 KIWX 220910
RWRIWX

KIWX WEATHER ROUNDUP
NATIONAL WEATHER SERVICE NORTHERN INDIANA
500 AM EDT SUN APR 22 2018

NOTE: "FAIR" INDICATES FEW OR NO CLOUDS BELOW 12,000 FEET WITH NO
SIGNIFICANT WEATHER AND/OR OBSTRUCTIONS TO VISIBILITY.

* THESE STATIONS ARE NOT UNDER NWS QUALITY CONTROL. THEY ALSO MAY NOT
  REPORT WEATHER SUCH AS PRECIPITATION OR FOG.

INZ001>027-221000-
NORTHERN INDIANA

CITY           SKY/WX    TMP DP  RH WIND       PRES   REMARKS
GARY*          FAIR      42  35  75 CALM      30.35F
VALPARAISO     FAIR      44  32  62 NE6       30.35R
MICHIGAN CITY* CLOUDY    37  32  81 CALM      30.35S
LAPORTE*       FAIR      44  29  56 E6        30.36R
KNOX*          FAIR      41  34  75 CALM      30.35R
SOUTH BEND     CLOUDY    43  29  57 CALM      30.36R
GOSHEN         FAIR      40  27  59 CALM      30.36R
MONTICELLO*    FAIR      46  24  42 E5        30.31R
LOGANSPORT*    FAIR      45  23  42 NE8       30.31F
ROCHESTER*     FAIR      46  28  49 NE5       30.33S
WARSAW*        FAIR      41  23  48 E6        30.34S
AUBURN*        FAIR      37  23  56 NE3       30.35S
FORT WAYNE     CLOUDY    42  25  50 NE5       30.35S
HUNTINGTON*    FAIR      42  25  50 NE3       30.33S
PERU/GRISSOM   CLOUDY   N/A N/A N/A NE12        N/A
MARION*        FAIR      44  24  46 CALM      30.31F

$$
INZ028>050-221000-
CENTRAL INDIANA

CITY           SKY/WX    TMP DP  RH WIND       PRES   REMARKS
LAFAYETTE      FAIR      46  29  51 E8        30.31R
KOKOMO*        FAIR      42  28  57 E9        30.30F
MUNCIE*        FAIR      45  23  42 E8        30.30S
INDIANAPOLIS   MOCLDY    47  25  42 E6        30.29R

$$
MIZ043>046-050>051-056>058-064>065-071>073-077>080-221000-
SOUTHWEST LOWER MICHIGAN

CITY           SKY/WX    TMP DP  RH WIND       PRES   REMARKS
BATTLE CREEK   FAIR      37  27  67 CALM      30.37S
BENTON HARBOR  CLOUDY    42  29  59 CALM      30.35F
COLDWATER*     CLOUDY    43  19  38 CALM      30.36S
HILLSDALE*     FAIR      32  21  64 S3        30.36R
HOLLAND        FAIR      33  29  85 CALM      30.37S
GRAND RAPIDS   FAIR      36  26  67 E3        30.37R
KALAMAZOO      MOCLDY    43  30  60 CALM      30.37R
STURGIS*       CLOUDY    44  23  43 E9        30.34F
THREE RIVERS*  FAIR      43  29  57 CALM      30.35F

$$
OHZ001>008-015>018-024>025-221000-
NORTHWEST OHIO

CITY           SKY/WX    TMP DP  RH WIND       PRES   REMARKS
WAUSEON*       CLOUDY    39  25  56 CALM      30.37S
DEFIANCE       MOCLDY    41  21  44 NE7       30.35F
FINDLAY        FAIR      43  21  41 NE8       30.33S
TOLEDO EXPRESS FAIR      41  22  46 NE5       30.36S
TOLEDO METCALF FAIR      39  29  67 CALM      30.38S
LIMA           FAIR      40  26  57 NE6       30.32F

$$
AND FOR LAKE MICHIGAN COASTAL AND OPEN LAKE BUOY OBSERVATIONS

STATION/POSITION TEMP    WIND        PRES    VSBY  WAVE
                 AIR SEA DIR/SP/G                  HT/PER
                 (F)     (DEG/KT/KT) (MB)    (MI)  (FT/S)
CALUMET HARBOR    40      30/  3/  4 1027.2R
MICHIGAN CITY     45     110/  7/  8   N/A
BURNS HARBOR      42      80/  5/  6 1028.1R
SAINT JOSEPH      45     110/  1/  3 1027.8

$$
&&




USA.gov is the U.S. government's official web portal to all federal, state and local government web resources and services.